Regional Weather Roundup
Issued by NWS Upton, NY

Current Version | Previous Version | Text Only | Print | Product List | Glossary On
Versions: 1 2 3 4 5 6 7 8 9 10 11 12 13 14 15 16 17 18 19 20 21 22 23 24 25 26 27 28 29 30 31 32 33 34 35 36 37 38 39 40 41 42 43 44 45 46 47 48 49 50
000 ASUS41 KOKX 191205 RWROKX REGIONAL WEATHER ROUNDUP NATIONAL WEATHER SERVICE NEW YORK NY 700 AM EST FRI DEC 19 2014 NOTE: "FAIR" INDICATES FEW OR NO CLOUDS BELOW 12,000 FEET WITH NO SIGNIFICANT WEATHER AND/OR OBSTRUCTIONS TO VISIBILITY. NYZ071-072-176-178-NJZ106-104-191300- NEW YORK CITY METRO AREA CITY SKY/WX TMP DP RH WIND PRES REMARKS CENTRAL PARK CLOUDY 37 22 54 NW10G18 30.01R WCI 30 LAGUARDIA APRT CLOUDY 37 24 59 NW14 30.00R WCI 28 KENNEDY INTL CLOUDY 38 22 52 NW12 30.01R WCI 30 NEWARK/LIBERTY CLOUDY 37 23 56 NW17G23 30.01R WCI 27 BRNX BOT. GARD N/A N/A N/A N/A NW5 30.02R TETERBORO CLOUDY 37 22 54 N13 30.00R WCI 29 $$ NYZ177-179-078>081-191300- LONG ISLAND NEW YORK CITY SKY/WX TMP DP RH WIND PRES REMARKS FARMINGDALE CLOUDY 36 25 64 NW5 29.99R WCI 32 ISLIP CLOUDY 36 25 64 W8 29.97R WCI 30 SHIRLEY CLOUDY 37 26 64 W6 29.99R WCI 32 WESTHAMPTON CLOUDY 37 25 61 NW7 29.99R WCI 32 MONTAUK POINT N/A 37 24 59 NW14G21 29.97R WCI 28 $$ NYZ052-065-067-191300- HUDSON VALLEY CITY SKY/WX TMP DP RH WIND PRES REMARKS WHITE PLAINS MOCLDY 35 23 61 NW15 29.97R WCI 25 NEWBURGH CLOUDY 32 23 69 NW14 29.99R WCI 22 MONTGOMERY CLOUDY 33 21 61 NW9 29.99R WCI 25 POUGHKEEPSIE CLOUDY 35 24 64 N7 29.99R WCI 29 ALBANY CLOUDY 31 20 63 NW17G26 30.00R WCI 19 $$ NJZ001-105-106-008-010-013-015-019>022-104-191300- NEW JERSEY CITY SKY/WX TMP DP RH WIND PRES REMARKS NEWARK/LIBERTY CLOUDY 37 23 56 NW17G23 30.01R WCI 27 TETERBORO CLOUDY 37 22 54 N13 30.00R WCI 29 CALDWELL CLOUDY 36 22 56 NW6 30.01R WCI 31 MORRISTOWN CLOUDY 37 25 60 N6G16 30.01R WCI 33 SOMERVILLE CLOUDY 38 23 55 VRB6 30.00R WCI 33 SUSSEX CLOUDY 33 21 61 VRB6 30.00R WCI 28 ANDOVER N/A 34 22 61 N8 30.00R WCI 27 TRENTON CLOUDY 36 24 62 W6 30.03R WCI 31 MILLVILLE CLOUDY 35 26 69 W10 30.07R WCI 27 ATLANTIC CITY CLOUDY 35 26 69 W9 30.05R WCI 28 WRIGHTSTOWN CLOUDY 36 25 65 W7 30.01R WCI 30 TOMS RIVER CLOUDY 36 25 64 W6 30.03R WCI 31 BELMAR CLOUDY 36 23 60 W5 30.01R WCI 32 $$ PAZ047>061-062-071-191300- EASTERN PENNSYLVANIA CITY SKY/WX TMP DP RH WIND PRES REMARKS PHILADELPHIA CLOUDY 37 25 61 W10 30.07R WCI 30 ALLENTOWN CLOUDY 35 26 69 W6 30.02R WCI 30 SCRANTON CLOUDY 32 22 66 NW16G22 30.02R WCI 21 $$ CTZ002-004>006-009-010-012-RIZ004-006-007-MAZ004-011-015-191300- SOUTHERN NEW ENGLAND IN CT CITY SKY/WX TMP DP RH WIND PRES REMARKS BRADLEY INTL MOCLDY 34 20 56 NW15 29.95R WCI 24 HARTFORD CLOUDY 34 20 56 NW9G20 29.97R WCI 27 DANBURY CLOUDY 33 23 66 NW7 29.98R WCI 27 WTRBRY/OXFORD CLOUDY 32 19 59 NW9 29.96R WCI 24 BRIDGEPORT CLOUDY 37 27 67 N7 29.98R WCI 32 MERIDEN CLOUDY 35 22 58 NW8 29.98R WCI 29 NEW HAVEN CLOUDY 38 24 57 NW5 29.98R WCI 34 CHESTER CLOUDY 34 23 64 NW8 29.96R WCI 27 GROTON MOCLDY 34 22 61 NW15 29.96R WCI 24 WILLIMANTIC CLOUDY 34 20 56 NW8 29.95R WCI 27 IN RI CITY SKY/WX TMP DP RH WIND PRES REMARKS PROVIDENCE MOCLDY 34 23 64 W8 29.92R WCI 27 BLOCK ISLAND CLOUDY 36 21 55 NW10G17 29.93R WCI 28 WESTERLY PTCLDY 34 22 61 NW6 29.95R WCI 29 IN MA CITY SKY/WX TMP DP RH WIND PRES REMARKS BOSTON MOCLDY 34 24 67 W10 29.91R WCI 26 WORCESTER CLOUDY 30 22 72 W18G25 29.87R WCI 18 WESTFIELD MOCLDY 33 20 58 W10 29.94R WCI 25 PROVINCETOWN CLOUDY 36 27 69 NW15G24 29.89R WCI 26 NANTUCKET CLOUDY 37 26 64 NW12 29.90R WCI 29 $$ ANZ330-335-338-340-345-350-353-355-191300- COASTAL MARINE OBSERVATIONS STATION/POSITION TIME SKY/WX TEMP WIND PRES VSBY WAVE AIR SEA DIR/SP/G HT/PER (UTC) (F) (DEG/KT/KT) (MB) (MI) (FT/S) NY HARB ENTRANCE 1200 39 47 320/ 17/ 23 1015.7 2/ 4 4S FIRE IS 1200 47 N/A 2/ 4 20S FIRE ISLAND 1100 40 49 1015.0 3/ 4 23SW MTP 1200 N/A 3/ 4 HUDSON CANYON 1200 42 55 320/ 19/ 21 1014.3 5/ 6 EXECUTION ROCKS 1200 38 42 310/ 14/ 19 N/A WESTERN LI SOUND 1200 38 310/ 12/ 16 N/A 1 CENTRAL LI SOUND 1100 37 44 330/ 12/ 17 N/A 1/ 3 EASTERN LI SOUND NOT AVBL ROBBINS REEF 1200 37 320/ 8/ 15 1014.6 $$ >>>>>>>>>>>>>>>>>>>>>>>>>>>> KEY <<<<<<<<<<<<<<<<<<<<<<<<<<< > < > SKY/WX - SKY CONDITION/PRESENT WEATHER < > TMP - TEMPERATURE IN FAHRENHEIT < > DP - DEWPOINT IN FAHRENHEIT < > RH - RELATIVE HUMIDITY IN PERCENT < > WIND - DIRECTION AND SPEED IN MPH < > PRES - MEAN SEA LEVEL PRESSURE IN INCHES OF HG < > WCI - WIND CHILL INDEX < > VSB - VISIBILITY IN MILES < > HX - HEAT INDEX < > TC - TEMPERATURE IN CELSIUS < > VRB - VARIABLE WIND DIRECTION < > < >>>>>>>>>>>>>>>>>>>>>>>>>>>> KEY <<<<<<<<<<<<<<<<<<<<<<<<<<<

USA.gov is the U.S. government's official web portal to all federal, state and local government web resources and services.